Location: 32930 Toén, Ourense, España
(42.3348°N, 7.8903°W)
Time: 12:07:41
(UTC+02:00)

ISS - Pass Details

Date: 03 June 2020
Orbit: 417 x 421 km, 51.6° (Epoch: 07 July)

Event Time Altitude Azimuth Distance (km) Brightness Sun altitude
Rises 22:56:36 0° 297° (WNW) 2,376 1.9 -8.7°
Reaches altitude 10° 22:58:49 10° 288° (WNW) 1,509 0.3 -9.0°
Maximum altitude 23:01:54 32° 223° (SW) 741 -2.5 -9.4°
Enters shadow 23:04:41 12° 160° (SSE) 1,400 -1.6 -9.8°
